Location: Hradec Kralove
(50.2170°N, 15.8330°E)
Time: 08:46:58
(UTC+01:00)

X-37B - Pass Details

Date: 14 December 2022
Orbit: 277 x 277 km, 45.0° (Epoch: 01 November)

Event Time Altitude Azimuth Distance (km) Brightness Sun altitude
Rises 18:35:00 0° 261° (W) 1,916 5.5 -24.5°
Reaches altitude 10° 18:37:18 10° 239° (WSW) 1,101 3.7 -24.8°
Enters shadow 18:37:22 10° 238° (WSW) 1,083 3.7 -24.9°
